Location: Unspecified
(52.4292°N, 19.3359°E)
Time: 23:34:21
(UTC+02:00)

A-11 Canister half - Pass Details

Date: 26 May 2024
Orbit: 1515 x 1685 km, 47.2° (Epoch: 19 June)

Event Time Altitude Azimuth Distance (km) Brightness Sun altitude
Rises 03:39:45 0° 248° (WSW) 4,766 - -6.6°
Exits shadow 03:40:44 - 247° (WSW) 4,452 10.9 -6.5°
Reaches altitude 10° 03:42:54 10° 245° (WSW) 3,760 10.5 -6.3°
Maximum altitude 03:52:09 61° 169° (SSE) 1,707 9.1 -5.3°
Drops below altitude 10° 04:01:12 10° 92° (E) 3,679 11.7 -4.4°
Sets 04:04:15 0° 89° (E) 4,658 12.4 -4.0°
